Sauk Centre, MN

5:59 AM CDT on October 22, 2019 (GMT -0500)
Sauk Centre

Weather History for KD39 - August, 2019

Change the Weather History Date:

Tuesday, August 27, 2019

  Actual Average (WUND) Record (WUND)
Temperature  
Mean Temperature 59 °F -  
Max Temperature 65 °F - - (-1)
Min Temperature 54 °F - - (-1)
Degree Days  
Heating Degree Days 6    
Growing Degree Days 9 (Base 50)    
Moisture  
Dew Point 52 °F    
Average Humidity 81    
Maximum Humidity 93    
Minimum Humidity 59    
Precipitation  
Precipitation 0.05 in - - ()
Sea Level Pressure  
Sea Level Pressure 29.76 in    
Wind  
Wind Speed 12 mph ()    
Max Wind Speed 26 mph    
Max Gust Speed 39 mph    
Visibility 9.9 miles    
Events Rain    
Averages and records for this station are not official NWS values.
T = Trace of Precipitation, MM = Missing Value Source: Averaged Metar Reports

Daily Weather History Graph

Daily Weather History Graph

Search for Another Location

Airport or City:

Astronomy

Aug. 27, 2019 Rise Set
Actual Time 6:34 AM CDT 8:07 PM CDT
Civil Twilight 6:03 AM CDT 8:38 PM CDT
Nautical Twilight 5:25 AM CDT 9:15 PM CDT
Astronomical Twilight 4:44 AM CDT 9:56 PM CDT
Moon 2:48 AM CDT (8/27) 6:39 PM CDT (8/27)
Length of Visible Light 14h 35m
Length of Day
13h 32m
Waning Crescent, 11% of the Moon is Illuminated
Aug 27
Waning Crescent
Aug 30
New
Sep 5
First Quarter
Sep 13
Full
Sep 21
Last Quarter

Hourly Weather History & Observations

Time (CDT) Temp. Dew Point Humidity Pressure Visibility Wind Dir Wind Speed Gust Speed Precip Events Conditions
12:15 AM 57.2 °F 53.8 °F 88% 29.76 in 10.0 mi West 6.9 mph - N/A   Scattered Clouds
12:16 AM 57.2 °F 53.6 °F 88% 29.76 in 10.0 mi West 6.9 mph - N/A   Scattered Clouds
12:38 AM 56.5 °F 53.6 °F 90% 29.75 in 10.0 mi West 6.9 mph - N/A   Clear
12:56 AM 56.5 °F 53.6 °F 90% 29.75 in 10.0 mi West 10.4 mph - N/A   Clear
1:16 AM 56.5 °F 54.0 °F 91% 29.74 in 10.0 mi West 10.4 mph - N/A   Clear
1:35 AM 56.3 °F 53.8 °F 91% 29.74 in 10.0 mi West 10.4 mph - N/A   Clear
1:55 AM 56.3 °F 53.2 °F 89% 29.74 in 10.0 mi West 10.4 mph - N/A   Clear
1:59 AM 56.3 °F 53.1 °F 89% 29.74 in 10.0 mi West 11.5 mph - N/A   Clear
2:17 AM 56.5 °F 53.4 °F 89% 29.74 in 10.0 mi West 8.1 mph - N/A   Clear
2:35 AM 56.5 °F 53.6 °F 90% 29.73 in 10.0 mi West 9.2 mph - N/A   Clear
2:55 AM 56.7 °F 54.0 °F 91% 29.73 in 10.0 mi West 11.5 mph - N/A   Clear
3:15 AM 56.3 °F 53.8 °F 91% 29.73 in 10.0 mi West 11.5 mph - N/A   Clear
3:16 AM 56.3 °F 53.8 °F 91% 29.73 in 10.0 mi West 10.4 mph - N/A   Clear
3:39 AM 56.1 °F 53.8 °F 92% 29.73 in 10.0 mi West 10.4 mph - N/A   Clear
3:56 AM 55.8 °F 53.6 °F 92% 29.72 in 10.0 mi West 12.7 mph - N/A   Clear
4:16 AM 55.6 °F 53.6 °F 93% 29.72 in 10.0 mi West 10.4 mph 16.1 mph N/A   Clear
4:35 AM 55.2 °F 53.1 °F 92% 29.72 in 10.0 mi West 9.2 mph - N/A   Clear
4:36 AM 55.2 °F 53.1 °F 92% 29.72 in 10.0 mi West 10.4 mph - N/A   Clear
4:55 AM 54.9 °F 52.7 °F 92% 29.72 in 10.0 mi West 10.4 mph - N/A   Clear
4:56 AM 54.9 °F 52.7 °F 92% 29.72 in 10.0 mi West 10.4 mph - N/A   Clear
5:18 AM 54.7 °F 52.3 °F 92% 29.73 in 10.0 mi West 10.4 mph - N/A   Clear
5:37 AM 54.7 °F 52.2 °F 91% 29.72 in 10.0 mi West 10.4 mph - N/A   Clear
5:56 AM 54.5 °F 52.0 °F 91% 29.74 in 10.0 mi West 11.5 mph - N/A   Clear
6:15 AM 54.5 °F 52.0 °F 91% 29.74 in 10.0 mi West 11.5 mph - N/A   Clear
6:35 AM 54.5 °F 52.0 °F 91% 29.74 in 10.0 mi West 11.5 mph - N/A   Clear
6:36 AM 54.5 °F 52.0 °F 91% 29.74 in 10.0 mi West 12.7 mph - N/A   Clear
6:58 AM 54.7 °F 52.2 °F 91% 29.75 in 10.0 mi West 12.7 mph - N/A   Clear
7:17 AM 54.9 °F 52.3 °F 91% 29.76 in 10.0 mi West 12.7 mph - N/A   Clear
7:36 AM 55.0 °F 52.3 °F 91% 29.75 in 10.0 mi West 10.4 mph - N/A   Clear
7:55 AM 55.9 °F 52.7 °F 89% 29.75 in 10.0 mi West 10.4 mph - N/A   Clear
8:17 AM 56.7 °F 52.7 °F 87% 29.75 in 10.0 mi West 12.7 mph 16.1 mph N/A   Clear
8:35 AM 57.6 °F 53.1 °F 85% 29.75 in 10.0 mi West 13.8 mph 17.3 mph N/A   Clear
8:57 AM 59.4 °F 53.2 °F 80% 29.75 in 10.0 mi West 13.8 mph 19.6 mph N/A   Clear
9:16 AM 59.5 °F 52.5 °F 78% 29.75 in 10.0 mi West 12.7 mph 20.7 mph N/A   Clear
9:35 AM 59.2 °F 52.9 °F 80% 29.76 in 10.0 mi West 10.4 mph 16.1 mph N/A   Clear
9:55 AM 59.4 °F 52.0 °F 77% 29.76 in 10.0 mi West 15.0 mph 23.0 mph N/A   Clear
10:17 AM 62.6 °F 52.7 °F 70% 29.76 in 10.0 mi West 17.3 mph 27.6 mph N/A   Clear
10:36 AM 63.5 °F 52.3 °F 67% 29.76 in 10.0 mi West 17.3 mph 27.6 mph N/A   Clear
10:55 AM 64.0 °F 51.1 °F 63% 29.76 in 10.0 mi West 20.7 mph 32.2 mph N/A   Scattered Clouds
10:56 AM 64.0 °F 51.3 °F 63% 29.76 in 10.0 mi West 20.7 mph 32.2 mph N/A   Scattered Clouds
11:15 AM 64.2 °F 50.0 °F 60% 29.76 in 10.0 mi West 21.9 mph 33.4 mph N/A   Scattered Clouds
11:16 AM 64.2 °F 50.0 °F 60% 29.76 in 10.0 mi West 18.4 mph 33.4 mph N/A   Scattered Clouds
11:35 AM 64.4 °F 50.5 °F 61% 29.76 in 10.0 mi West 20.7 mph 31.1 mph N/A   Scattered Clouds
11:58 AM 64.8 °F 50.0 °F 59% 29.76 in 10.0 mi West 20.7 mph 35.7 mph N/A   Mostly Cloudy
12:16 PM 64.6 °F 50.4 °F 60% 29.75 in 10.0 mi West 24.2 mph 32.2 mph N/A   Mostly Cloudy
12:36 PM 56.8 °F 49.5 °F 76% 29.77 in 4.0 mi WSW 18.4 mph 31.1 mph 0.03 in   Overcast
12:55 PM 57.2 °F 51.8 °F 82% 29.76 in 10.0 mi WSW 8.1 mph - 0.03 in   Overcast
12:56 PM 57.2 °F 52.0 °F 83% 29.76 in 10.0 mi WSW 9.2 mph - 0.03 in   Mostly Cloudy
1:15 PM 63.1 °F 53.8 °F 71% 29.75 in 10.0 mi West 23.0 mph 29.9 mph 0.01 in   Mostly Cloudy
1:20 PM 63.7 °F 51.4 °F 64% 29.75 in 10.0 mi West 20.7 mph 29.9 mph 0.01 in   Mostly Cloudy
1:37 PM 64.4 °F 51.4 °F 63% 29.75 in 10.0 mi West 21.9 mph 39.1 mph 0.01 in   Scattered Clouds
1:55 PM 62.2 °F 51.3 °F 67% 29.77 in 7.0 mi West 24.2 mph 34.5 mph 0.01 in Rain Rain
2:15 PM 58.6 °F 54.5 °F 86% 29.77 in 10.0 mi West 11.5 mph 19.6 mph N/A   Mostly Cloudy
2:16 PM 59.0 °F 54.9 °F 86% 29.77 in 10.0 mi West 13.8 mph 23.0 mph N/A   Overcast
2:35 PM 63.0 °F 52.9 °F 70% 29.76 in 10.0 mi West 23.0 mph 36.8 mph N/A   Mostly Cloudy
2:36 PM 63.1 °F 52.7 °F 69% 29.75 in 10.0 mi West 23.0 mph 36.8 mph N/A   Mostly Cloudy
2:55 PM 63.7 °F 50.5 °F 62% 29.75 in 10.0 mi West 24.2 mph 35.7 mph N/A   Mostly Cloudy
2:59 PM 63.0 °F 50.9 °F 65% 29.75 in 10.0 mi West 19.6 mph 35.7 mph N/A   Mostly Cloudy
3:18 PM 60.3 °F 54.3 °F 81% 29.76 in 10.0 mi West 11.5 mph - 0.01 in Rain Light Rain
3:36 PM 63.5 °F 52.7 °F 68% 29.75 in 10.0 mi West 24.2 mph 32.2 mph 0.01 in   Mostly Cloudy
3:55 PM 63.0 °F 50.9 °F 65% 29.75 in 10.0 mi West 25.3 mph 33.4 mph 0.01 in   Mostly Cloudy
4:15 PM 62.2 °F 50.7 °F 66% 29.76 in 10.0 mi West 26.5 mph 34.5 mph N/A   Mostly Cloudy
4:16 PM 62.1 °F 50.7 °F 66% 29.76 in 10.0 mi West 25.3 mph 34.5 mph N/A   Mostly Cloudy
4:35 PM 59.7 °F 50.0 °F 70% 29.76 in 10.0 mi West 23.0 mph 31.1 mph N/A   Overcast
4:36 PM 59.7 °F 50.0 °F 70% 29.76 in 10.0 mi West 24.2 mph 31.1 mph N/A   Overcast
4:55 PM 62.4 °F 51.6 °F 68% 29.77 in 10.0 mi West 21.9 mph 29.9 mph N/A   Overcast
4:56 PM 62.2 °F 51.4 °F 68% 29.77 in 10.0 mi West 23.0 mph 29.9 mph N/A   Overcast
5:15 PM 61.2 °F 52.0 °F 72% 29.77 in 10.0 mi West 21.9 mph 28.8 mph N/A   Overcast
5:19 PM 60.8 °F 51.6 °F 72% 29.77 in 10.0 mi West 24.2 mph 32.2 mph N/A   Overcast
5:38 PM 60.8 °F 51.8 °F 72% 29.78 in 10.0 mi West 17.3 mph 31.1 mph N/A   Overcast
5:55 PM 61.3 °F 52.9 °F 74% 29.78 in 10.0 mi West 15.0 mph 35.7 mph N/A   Mostly Cloudy
6:15 PM 61.0 °F 53.1 °F 75% 29.78 in 10.0 mi West 17.3 mph 23.0 mph N/A   Overcast
6:16 PM 61.0 °F 53.1 °F 75% 29.78 in 10.0 mi West 18.4 mph 23.0 mph N/A   Overcast
6:35 PM 60.8 °F 52.9 °F 75% 29.78 in 10.0 mi West 20.7 mph 31.1 mph N/A   Overcast
6:58 PM 59.5 °F 53.8 °F 81% 29.79 in 10.0 mi West 13.8 mph 23.0 mph N/A   Mostly Cloudy
7:17 PM 57.6 °F 54.1 °F 88% 29.79 in 10.0 mi West 11.5 mph 20.7 mph N/A Rain Light Rain
7:36 PM 57.4 °F 54.9 °F 91% 29.79 in 10.0 mi West 10.4 mph - N/A   Overcast
7:55 PM 57.7 °F 54.7 °F 90% 29.79 in 10.0 mi West 11.5 mph - N/A   Overcast
7:56 PM 57.7 °F 54.7 °F 90% 29.79 in 10.0 mi West 10.4 mph - N/A   Overcast
8:15 PM 58.3 °F 54.0 °F 86% 29.79 in 10.0 mi West 12.7 mph 18.4 mph N/A Rain Light Rain
8:19 PM 58.3 °F 54.0 °F 86% 29.79 in 10.0 mi West 11.5 mph 18.4 mph N/A   Light Drizzle
8:37 PM 58.1 °F 53.8 °F 86% 29.80 in 10.0 mi West 12.7 mph 18.4 mph N/A Rain Light Rain
8:56 PM 57.4 °F 52.9 °F 85% 29.80 in 10.0 mi West 20.7 mph 28.8 mph N/A   Overcast
9:15 PM 56.5 °F 52.9 °F 88% 29.80 in 10.0 mi West 15.0 mph 24.2 mph N/A Rain Light Rain
9:36 PM 55.9 °F 52.9 °F 89% 29.82 in 10.0 mi West 12.7 mph 20.7 mph N/A   Overcast
9:55 PM 55.6 °F 52.2 °F 88% 29.82 in 10.0 mi West 8.1 mph - N/A   Scattered Clouds
10:15 PM 55.0 °F 52.0 °F 89% 29.82 in 10.0 mi West 9.2 mph - N/A   Clear
10:19 PM 54.9 °F 51.8 °F 89% 29.82 in 10.0 mi West 10.4 mph - N/A   Clear
10:38 PM 55.0 °F 51.8 °F 89% 29.82 in 10.0 mi West 10.4 mph - N/A   Scattered Clouds
10:57 PM 55.8 °F 51.8 °F 87% 29.81 in 10.0 mi West 10.4 mph - N/A   Mostly Cloudy
11:16 PM 56.5 °F 51.3 °F 83% 29.82 in 10.0 mi West 11.5 mph - N/A   Overcast
11:35 PM 56.3 °F 51.8 °F 85% 29.82 in 10.0 mi West 12.7 mph 17.3 mph N/A   Overcast
11:36 PM 56.3 °F 51.8 °F 85% 29.82 in 10.0 mi West 10.4 mph 17.3 mph N/A   Overcast
11:55 PM 55.4 °F 52.3 °F 89% 29.82 in 10.0 mi West 11.5 mph 17.3 mph N/A   Overcast
11:56 PM 55.4 °F 52.3 °F 89% 29.82 in 10.0 mi West 11.5 mph 17.3 mph N/A   Overcast